[[{"header":{"parameterUnit":"m.s-1","parameterCategory":1,"la1":30.2991,"la2":30.254,"lo1":-89.0895,"lo2":-89.0444,"dy":0.0017,"dx":0.0017,"nx":28,"ny":28,"refTime":"2025-05-30T09:00:00:Z","depth":0,"parameterNumber":2,"parameterNumberName":"U-component_of_WINDS"},"data":[0,0,0,0,0,0,0,0,0,0,0,0,0,0,0,0,0,0,0,0,0,0,0,0,0,0,0,0,0,0,0,0,0,0,0,0,0,0,0,0,0,0,0,0,0,0,0,0,0,0,0,0,0,0,0,0,0,0,2.7131,2.7132,0,2.7236,2.7237,2.7239,2.727,2.7269,2.7269,2.7268,2.738,2.7383,2.7386,0,0,0,0,0,0,0,0,0,0,0,0,0,2.696,2.6963,2.7131,2.7132,2.7133,2.7236,2.7238,2.7239,2.727,2.7269,2.7269,2.7268,2.7379,2.7383,2.7387,0,0,0,0,0,0,0,0,0,0,0,0,0,2.7047,2.6964,2.7131,2.7161,2.7165,2.7236,2.7238,2.7239,2.727,2.7269,2.7268,2.7268,2.7377,2.7382,2.7387,2.7436,0,0,2.7403,2.7406,0,0,0,0,0,0,0,0,2.7042,2.7053,2.7155,2.7159,2.7164,2.7239,2.7218,2.7306,2.727,2.723,2.7268,2.7267,2.7334,2.7343,2.7364,2.7442,2.7446,2.7404,2.7407,2.7409,2.7411,0,0,0,0,0,0,0,2.7036,2.7049,2.7173,2.7157,2.7162,2.7171,2.7182,2.7235,2.7286,2.7234,2.7236,2.7248,2.7336,2.7359,2.7367,2.7448,2.7404,2.7408,2.7412,2.7414,2.7572,2.7573,0,0,0,0,0,0,2.7024,2.7044,2.7169,2.7176,2.7099,2.7175,2.7187,2.7216,2.7285,2.7295,2.7249,2.7249,2.7351,2.7361,2.7371,2.7433,2.7409,2.7414,2.7417,2.7571,2.7572,2.7573,0,0,0,0,0,0,2.702,2.7035,2.7165,2.7111,2.7128,2.7179,2.721,2.7218,2.7241,2.7296,2.7306,2.7263,2.735,2.7364,2.742,2.7438,2.7416,2.7421,2.757,2.7571,2.7573,2.7558,0,0,0,0,0,0,2.7015,2.7034,2.7052,2.7111,2.713,2.7211,2.7211,2.7221,2.725,2.7252,2.7312,2.7321,2.7351,2.7412,2.7425,2.7444,2.7425,2.7568,2.757,2.7572,2.7557,2.7558,2.756,0,0,0,0,0,2.7009,2.7044,2.7052,2.7067,2.7154,2.7212,2.7223,2.7255,2.7251,2.727,2.7306,2.7319,2.7434,2.7417,2.7432,2.7454,2.7567,2.757,2.7572,2.7556,2.7558,2.756,0,0,0,0,0,0,2.6986,2.7052,2.7062,2.7117,2.7158,2.7217,2.7242,2.7256,2.7301,2.73,2.734,2.7353,2.7406,2.7436,2.7417,2.7505,2.7501,2.7507,2.7484,2.7486,2.7488,2.7479,2.743,0,0,0,0,0,2.6988,2.7028,2.7083,2.7126,2.7146,2.719,2.7217,2.7238,2.7283,2.7301,2.7341,2.7385,2.7431,2.746,2.7506,2.7562,2.7576,2.7584,2.7585,2.7586,2.7591,2.7623,2.7627,2.7581,2.7581,2.7581,0,0,2.6991,2.7031,2.7054,2.7123,2.7157,2.7199,2.7205,2.7249,2.7281,2.7308,2.7363,2.7394,2.7446,2.7502,2.7529,2.7529,2.7607,2.7589,2.759,2.7594,2.7626,2.763,2.7634,2.7583,2.7583,2.7582,0,0,2.7017,2.7052,2.7091,2.7126,2.7178,2.7208,2.7217,2.7274,2.7295,2.735,2.7372,2.7411,2.749,2.7526,2.7555,2.7596,2.7611,2.761,2.7619,2.765,2.7653,2.7657,2.7672,2.7677,2.7615,2.7614,2.7614,0,2.7015,2.7077,2.711,2.7153,2.7183,2.7209,2.725,2.7282,2.7347,2.7368,2.7366,2.7465,2.7502,2.7567,2.7577,2.76,2.7613,2.7603,2.765,2.7654,2.7657,2.7672,2.7678,2.7614,2.7614,2.7614,2.7614,0,2.7072,2.7115,2.7141,2.7201,2.7234,2.7276,2.7317,2.7346,2.7365,2.7395,2.7452,2.7497,2.7553,2.757,2.7589,2.7639,2.7637,2.7642,2.7638,2.7661,2.7675,2.7681,2.7613,2.7614,2.7614,2.7614,0,0,2.7086,2.7164,2.7173,2.7202,2.7262,2.7296,2.734,2.7393,2.7418,2.7462,2.7501,2.7567,2.7572,2.7605,2.7629,2.7656,2.7686,2.7658,2.766,2.7662,2.7744,2.7739,2.7745,2.7697,2.7698,2.7699,2.774,0,2.712,2.7197,2.7228,2.7292,2.7333,2.7359,2.7397,2.7439,2.7468,2.7509,2.7542,2.7588,2.7592,2.7612,2.764,2.7676,2.7703,2.7674,2.7733,2.7735,2.7718,2.7753,2.7748,2.7784,2.7746,2.7747,2.7747,0,2.7169,2.7213,2.728,2.7335,2.7354,2.7387,2.7439,2.7477,2.7525,2.7545,2.7582,2.7604,2.7652,2.7646,2.7714,2.7693,2.772,2.7742,2.7744,2.775,2.7742,2.776,2.7796,2.7801,2.7757,2.7756,2.7755,0,2.7173,2.7248,2.7298,2.7322,2.7388,2.7411,2.744,2.7488,2.7518,2.7564,2.7584,2.7635,2.7663,2.7703,2.7739,2.7731,2.7803,2.78,2.7821,2.7821,2.7835,2.7833,2.7876,2.7853,2.7853,2.7852,2.7852,0,2.7207,2.7247,2.7301,2.7331,2.7377,2.7414,2.7459,2.749,2.7532,2.7571,2.7597,2.7633,2.7678,2.772,2.7749,2.7801,2.7814,2.7832,2.7839,2.7829,2.7826,2.7846,2.7844,2.7854,2.7854,2.7853,2.7853,0,2.7218,2.7255,2.7312,2.737,2.7385,2.7417,2.7467,2.7499,2.753,2.7578,2.7591,2.7641,2.7691,2.7731,2.7798,2.7818,2.7872,2.788,2.7855,2.7859,2.7878,2.7875,2.7934,2.7944,2.7914,2.7914,2.7914,0,2.7237,2.7268,2.733,2.7356,2.7385,2.7428,2.7459,2.7497,2.7528,2.7586,2.7611,2.7663,2.7707,2.7787,2.783,2.7881,2.789,2.7908,2.7898,2.7888,2.7891,2.7888,2.7891,2.7908,2.7908,2.7908,2.7909,0,2.7267,2.7284,2.7326,2.7376,2.7412,2.7453,2.7494,2.7515,2.7562,2.7596,2.7647,2.7681,2.7749,2.7801,2.7856,2.7888,2.7906,2.7911,2.7919,2.7909,2.7893,2.7902,2.7857,2.791,2.7909,2.7909,2.7909,2.7909,2.7282,2.7311,2.7359,2.7406,2.7441,2.748,2.7512,2.7548,2.7591,2.7648,2.7668,2.7722,2.7771,2.7848,2.788,2.7923,2.7924,2.7935,2.7938,2.794,2.7939,2.7886,2.7933,2.7933,2.7933,2.7933,2.7933,0,2.7313,2.7345,2.7388,2.7445,2.7483,2.7496,2.7543,2.7574,2.762,2.7664,2.7706,2.7766,2.7817,2.7863,2.7917,2.7942,2.7952,2.7955,2.7953,2.7961,2.7934,2.7922,2.7946,2.7946,2.7946,2.7946,2.7946,2.7946,2.7334,2.7384,2.7407,2.7475,2.7507,2.7559,2.7584,2.7621,2.7656,2.7721,2.7763,2.7793,2.7838,2.7895,2.7943,2.7956,2.7974,2.7975,2.799,2.7964,2.7962,2.796,2.7949,2.7979,2.7979,2.8012,2.8012,2.8013]},{"header":{"parameterUnit":"m.s-1","parameterCategory":1,"la1":30.2991,"la2":30.254,"lo1":-89.0895,"lo2":-89.0444,"dy":0.0017,"dx":0.0017,"nx":28,"ny":28,"refTime":"2025-05-30T09:00:00:Z","depth":0,"parameterNumber":3,"parameterNumberName":"V-component_of_WINDS"},"data":[0,0,0,0,0,0,0,0,0,0,0,0,0,0,0,0,0,0,0,0,0,0,0,0,0,0,0,0,0,0,0,0,0,0,0,0,0,0,0,0,0,0,0,0,0,0,0,0,0,0,0,0,0,0,0,0,0,0,0.118,0.118,0,0.1194,0.1194,0.1194,0.1125,0.1123,0.1121,0.1119,0.1136,0.1138,0.1141,0,0,0,0,0,0,0,0,0,0,0,0,0,0.1095,0.1097,0.118,0.118,0.118,0.1194,0.1194,0.1194,0.1125,0.1123,0.112,0.1118,0.1135,0.1138,0.1141,0,0,0,0,0,0,0,0,0,0,0,0,0,0.1123,0.1098,0.118,0.1148,0.1145,0.1194,0.1194,0.1194,0.1126,0.1123,0.112,0.1117,0.1134,0.1138,0.1141,0.1223,0,0,0.1152,0.1153,0,0,0,0,0,0,0,0,0.1121,0.1126,0.1152,0.115,0.1147,0.1154,0.117,0.1204,0.1127,0.1133,0.1119,0.1116,0.1145,0.1147,0.1156,0.1223,0.1224,0.1152,0.1154,0.1156,0.1157,0,0,0,0,0,0,0,0.112,0.1125,0.1186,0.1153,0.115,0.1133,0.1133,0.1176,0.1156,0.1132,0.1127,0.113,0.1143,0.1153,0.1156,0.1224,0.1152,0.1155,0.1157,0.1159,0.1354,0.1357,0,0,0,0,0,0,0.1122,0.1124,0.1185,0.1186,0.1126,0.1137,0.1137,0.1155,0.1155,0.1152,0.1132,0.1126,0.1149,0.1152,0.1157,0.1249,0.1156,0.1159,0.1161,0.1351,0.1355,0.1358,0,0,0,0,0,0,0.112,0.1128,0.1185,0.1154,0.1159,0.1141,0.1162,0.1157,0.1167,0.1155,0.1151,0.1147,0.1147,0.1152,0.1205,0.1249,0.116,0.1164,0.1347,0.1352,0.1357,0.1437,0,0,0,0,0,0,0.1118,0.1128,0.1159,0.1155,0.1161,0.1234,0.1165,0.1159,0.1173,0.1166,0.1167,0.1165,0.1145,0.1201,0.1209,0.1252,0.1166,0.1344,0.135,0.1355,0.143,0.1444,0.1455,0,0,0,0,0,0.1115,0.1183,0.1161,0.1169,0.12,0.1236,0.124,0.1214,0.1177,0.1208,0.1199,0.1165,0.1243,0.1207,0.1216,0.126,0.1341,0.1348,0.1355,0.1425,0.1441,0.1455,0,0,0,0,0,0,0.1195,0.1182,0.1157,0.1225,0.1232,0.1224,0.1263,0.1233,0.1252,0.1244,0.1213,0.1214,0.1272,0.1272,0.1232,0.1337,0.1285,0.1294,0.1335,0.1351,0.1363,0.1362,0.1169,0,0,0,0,0,0.1219,0.125,0.1237,0.1298,0.1302,0.1282,0.1297,0.1276,0.1283,0.1286,0.1281,0.1289,0.1315,0.1333,0.1356,0.1429,0.1427,0.1464,0.1477,0.1487,0.1495,0.153,0.1546,0.1381,0.1381,0.1381,0,0,0.1273,0.1269,0.129,0.1314,0.1317,0.1348,0.1285,0.1322,0.1345,0.1292,0.1341,0.1338,0.1344,0.1407,0.1435,0.1409,0.154,0.1496,0.1504,0.1507,0.1539,0.1555,0.1569,0.1386,0.1385,0.1384,0,0,0.1384,0.1385,0.1434,0.1437,0.1441,0.1427,0.1439,0.1435,0.143,0.1478,0.1438,0.1464,0.1511,0.1516,0.1524,0.1633,0.1602,0.1642,0.1707,0.1742,0.1755,0.1766,0.1803,0.1816,0.165,0.165,0.165,0,0.145,0.1495,0.1464,0.1502,0.1513,0.1463,0.1512,0.1517,0.1529,0.1537,0.1507,0.1561,0.1562,0.1624,0.165,0.166,0.1671,0.1642,0.1755,0.1766,0.1776,0.1811,0.1825,0.1655,0.1655,0.1654,0.1654,0,0.1574,0.1605,0.1645,0.1655,0.167,0.1713,0.1688,0.1707,0.1684,0.1672,0.1721,0.172,0.174,0.1753,0.1733,0.1811,0.1794,0.1761,0.1708,0.1797,0.1829,0.1842,0.1662,0.166,0.1659,0.1658,0,0,0.1739,0.1727,0.1742,0.1744,0.1743,0.1767,0.1808,0.1826,0.1841,0.1851,0.1882,0.192,0.1887,0.1897,0.1876,0.1907,0.199,0.1869,0.1868,0.189,0.2073,0.2098,0.2114,0.1968,0.1971,0.1973,0.2072,0,0.1846,0.1913,0.1884,0.1954,0.1981,0.1933,0.1967,0.197,0.1959,0.1981,0.1969,0.1995,0.1952,0.1956,0.1985,0.1974,0.2026,0.1966,0.1997,0.1999,0.1996,0.2131,0.2158,0.2252,0.2084,0.2086,0.2088,0,0.1981,0.1993,0.2065,0.2054,0.2065,0.2097,0.2108,0.213,0.2131,0.2121,0.213,0.2101,0.2138,0.2085,0.2136,0.2096,0.2106,0.2102,0.2105,0.2107,0.2048,0.2134,0.2281,0.2295,0.2108,0.2106,0.2105,0,0.2091,0.2125,0.2171,0.2175,0.2165,0.2188,0.2185,0.2183,0.2194,0.2205,0.2212,0.2228,0.2236,0.2249,0.2224,0.2188,0.2277,0.2223,0.2269,0.2269,0.229,0.2289,0.2439,0.2299,0.2299,0.2298,0.2298,0,0.2214,0.226,0.222,0.2249,0.2297,0.2263,0.2312,0.2304,0.2301,0.2327,0.2286,0.2311,0.2277,0.2299,0.228,0.2322,0.2327,0.2319,0.2313,0.2322,0.2323,0.2329,0.2321,0.2302,0.2301,0.23,0.23,0,0.2346,0.2321,0.2368,0.2353,0.235,0.2387,0.2374,0.2399,0.2384,0.2416,0.2422,0.2399,0.2421,0.2397,0.2419,0.2406,0.2463,0.2448,0.2462,0.2457,0.2504,0.2499,0.2662,0.268,0.253,0.2531,0.2532,0,0.2426,0.2459,0.2446,0.2459,0.2458,0.248,0.249,0.2457,0.2469,0.247,0.2495,0.2514,0.2527,0.2564,0.2549,0.2565,0.2549,0.2605,0.2552,0.2558,0.2548,0.2545,0.2547,0.2616,0.2618,0.2619,0.2621,0,0.2568,0.2553,0.2569,0.2579,0.2592,0.2599,0.2604,0.2617,0.2582,0.2598,0.2619,0.2628,0.2648,0.2666,0.2676,0.2673,0.2641,0.2637,0.2648,0.2657,0.2663,0.2658,0.249,0.2634,0.2632,0.2632,0.2631,0.263,0.2675,0.2701,0.2695,0.2712,0.2711,0.2715,0.2736,0.2722,0.2739,0.2751,0.273,0.2756,0.2753,0.2763,0.2763,0.2782,0.2758,0.2775,0.2779,0.2783,0.2789,0.266,0.2784,0.2784,0.2784,0.2783,0.2783,0,0.2814,0.2807,0.2823,0.2828,0.2842,0.2808,0.2809,0.2823,0.2845,0.2845,0.2857,0.2879,0.2896,0.288,0.2893,0.2912,0.2897,0.2916,0.2914,0.2913,0.2811,0.2799,0.2927,0.2927,0.2927,0.2927,0.2927,0.2927,0.2888,0.2928,0.2912,0.295,0.2943,0.2966,0.2969,0.2972,0.297,0.2997,0.3009,0.2998,0.2991,0.3002,0.3015,0.301,0.3016,0.304,0.303,0.2935,0.2921,0.2907,0.2896,0.3042,0.3043,0.313,0.3131,0.3132]}]]